Flag for Netherlands Weather past 2 weeks in Utrecht, Netherlands

Now
43 °F

Light rain. Partly cloudy.


Feels Like: 34 °F
Forecast: 36 / 48 °F
Wind: 18 mph from Northwest

Location: Amsterdam Schiphol Airport

Current Time: Apr 2, 2015 at 6:34:23 AM

Latest Report: Apr 2, 2015 at 5:55 AM


Visibility: N/A

Pressure: 29.83 "Hg

Humidity: 87%

Dew point: 39 °F

Location of UtrechtLocation

Historic Weather in Utrecht — Graph

°F

Utrecht temperature yesterday

Maximum temperature yesterday: 48 °F (at 2:55 PM)
Minimum temperature yesterday: 41 °F (at 3:25 AM)
Average temperature yesterday: 44 °F

Past Weeks' High & Low Weather Summary

 TemperatureHumidityPressure
High54 °F (Mar 19, 12:55 PM)100% (Mar 18, 3:25 AM)30.42 "Hg (Mar 18, 3:25 AM)
Low28 °F (Mar 23, 6:55 AM)53% (Mar 22, 2:55 PM)29.15 "Hg (Mar 29, 5:25 PM)
Average43 °F83%29.93 "Hg
* Reported Mar 18 3:25 AM — Apr 2 4:55 AM, Utrecht, Weather by CustomWeather, © 2015

Note: Actual official high and low records may vary slightly from our data, if they occured in-between our weather recording intervals... More about our weather records

Advertising

Utrecht weather history for previous 24 hours

 ConditionsComfort  
Time TempWeatherWind HumidityBarometerVisibility
4:55 AM
Thu, Apr 2
43 °FPartly cloudy.22 mph87%29.83 "HgN/A
4:25 AM43 °FPartly cloudy.23 mph87%29.83 "HgN/A
3:55 AM43 °FPartly cloudy.22 mph93%29.86 "HgN/A
3:25 AM43 °FPartly cloudy.22 mph93%29.86 "HgN/A
2:55 AM43 °FPartly cloudy.25 mph93%29.89 "HgN/A
2:25 AM43 °FPartly cloudy.24 mph93%29.89 "HgN/A
1:55 AM45 °FPartly cloudy.23 mph87%29.92 "Hg6 mi
1:25 AM43 °FLight rain. Partly cloudy.23 mph93%29.92 "HgN/A
12:55 AM43 °FLight rain. Passing clouds.28 mph93%29.95 "HgN/A
12:25 AM45 °FLight rain. Passing clouds.26 mph81%29.95 "HgN/A
11:55 PM
Wed, Apr 1
45 °FPassing clouds.24 mph81%29.95 "HgN/A
11:25 PM45 °FPassing clouds.21 mph81%29.98 "HgN/A
10:55 PM45 °FPassing clouds.25 mph81%29.98 "HgN/A
10:25 PM45 °FPassing clouds.22 mph81%29.98 "HgN/A
9:55 PM45 °FPassing clouds.22 mph81%29.98 "HgN/A
9:25 PM45 °FPassing clouds.17 mph81%30.01 "HgN/A
8:55 PM43 °FScattered clouds.15 mph81%30.01 "HgN/A
8:25 PM43 °FRain showers. Scattered clouds.21 mph81%30.04 "Hg4 mi
7:55 PM45 °FScattered clouds.22 mph76%30.04 "HgN/A
7:25 PM46 °FSprinkles. Scattered clouds.24 mph66%30.04 "HgN/A
6:55 PM46 °FPassing clouds.23 mph66%30.04 "HgN/A
6:25 PM46 °FPassing clouds.24 mph71%30.04 "HgN/A
5:55 PM46 °FPassing clouds.25 mph66%30.07 "HgN/A
5:25 PM48 °FPassing clouds.26 mph66%30.07 "HgN/A
4:55 PM48 °FPassing clouds.28 mph66%30.07 "HgN/A
4:25 PM48 °FPassing clouds.29 mph62%30.07 "HgN/A
3:55 PM48 °FScattered clouds.29 mph66%30.07 "HgN/A
3:25 PM48 °FScattered clouds.31 mph62%30.07 "HgN/A
2:55 PM48 °FScattered clouds.29 mph66%30.07 "HgN/A
2:25 PM46 °FScattered clouds.30 mph66%30.04 "HgN/A
1:55 PM45 °FScattered showers. Scattered clouds.31 mph71%30.04 "HgN/A
1:25 PM45 °FScattered showers. Scattered clouds.28 mph71%30.04 "HgN/A
12:55 PM45 °FScattered showers. Scattered clouds.23 mph81%30.04 "HgN/A
12:25 PM43 °FSprinkles. Scattered clouds.23 mph76%30.04 "HgN/A
11:55 AM45 °FPassing clouds.23 mph66%30.04 "HgN/A
11:25 AM43 °FScattered showers. Passing clouds.21 mph81%30.01 "HgN/A
10:55 AM43 °FSprinkles. Scattered clouds.23 mph76%30.01 "HgN/A
10:25 AM43 °FSprinkles. Scattered clouds.22 mph76%30.01 "HgN/A
9:55 AM43 °FScattered showers. Passing clouds.24 mph71%30.01 "HgN/A
9:25 AM43 °FSprinkles. Passing clouds.22 mph76%29.98 "HgN/A
8:55 AM43 °FPassing clouds.17 mph76%29.98 "HgN/A
8:25 AM41 °FPassing clouds.24 mph76%29.95 "HgN/A
7:55 AM43 °FScattered showers. Passing clouds.23 mph66%29.95 "HgN/A
7:25 AM41 °FPassing clouds.23 mph76%29.92 "HgN/A
6:55 AM43 °FPassing clouds.29 mph66%29.89 "HgN/A
6:25 AM43 °FPassing clouds.28 mph66%29.89 "HgN/A
Weather by CustomWeather, © 2015

See weather overviewHow to use our weather pages